loading
|
DECAYED

OBJECT C, 51096 (Decayed)

Orbit data source: Space-Track

OBJECT C, 51096 was a satellite in LEO that was launched on Thu, 13 Jan 2022 UTC via an LAUNCHERONE launch vehicle from the Pegasus Launch, Western Range Air Space (WRAS). Unknown objects in Earth's orbit typically refer to objects detected orbiting the Earth but have not yet been identified or cataloged. These objects could be anything from previously untracked satellites, spent rocket stages, debris from satellite collisions, or even natural meteoroids temporarily captured by Earth's gravity. This object's orbit decayed before it could be identified.

Next visibility unknown
No 3D visualization available: RSO Decayed
OBJECT C details
Identifier
51096, 2022-003C
Orbit
Decayed
Last TLE update1 month ago
Origin
Flag of TBDCORN/LARCN (TBD)
ManufacturerCornell
Mission statusDecayed
MissionAmateur Technology
Bus & MotorCUBESAT 3U, Unknown motor
Mass4 kg wet, 4 kg dry
Launch date (UTC)
2022-01-13 (3 years ago)
Launch vehicle
LAUNCHERONE
Launch site
Pegasus Launch, Western Range Air Space (WRAS)
Object typeUnknown
Radar Cross SectionSmall (<0.1 m²)

Expand to show TLE details & history

TLE from 1 month ago
0 OBJECT C
1 51096U 22003C   24229.64932609  .11828593  10716-4  32976-3 0  9992
2 51096  44.9174 335.3400 0006464 325.2105  34.8398 16.45189140145664
Epoch: 2024-08-16T15:35Z
Definitive object data (Epoch: 2024-08-16T15:35:01.774Z)
Latitude-0.00001°
Longitude136.06236°
Altitude148.561 km
Speed7.821 km/s
True Right ascension22h 21m 21s
True Declination0° 00' 00"
Sunlit
Object was in full shadow at TLE epoch
Predictive object data (real-time)
LatitudeUnknown
LongitudeUnknown
AltitudeUnknown
SpeedUnknown
Apparent Right ascensionUnknown
Apparent DeclinationUnknown
SunlitUnknown
Predictive observer data (real-time)
Local Sidereal Time15:50:04
AzimuthUnknown
ElevationUnknown
Doppler factorUnknown
Orbital elements
Apogee157.962 km
Perigee149.518 km
Semi-major axis6,531.877 km
Eccentricity0.0006464
Inclination44.9174°
RAAN335.34°
Arg. of periapsis325.2105°
True anomaly34.88214°
Mean anomaly34.8398°
Eccentric anomaly34.86097°
Mean motion4.11137 °/min
BSTAR0.00032976
Period87.56 mins
No data available

OBJECT C Visibility forecast

Observer location: 39.9160978°, -105.1181434

This satellite is decayed
Span
Click to sort rows by Start time (UTC) header in descending order
Start Az.
Max El. time (UTC)
Max El. Az.
Max El.
End time (UTC)
End Az.